Location: ????
(30.1475°N, 31.1342°E)
Time: 09:44:57
(UTC+00:00)

COSMOS 2251 DEB - Pass Details

Date: 03 June 2024
Orbit: 760 x 785 km, 73.9° (Epoch: 19 June)

Event Time Altitude Azimuth Distance (km) Brightness Sun altitude
Rises 01:34:03 0° 348° (NNW) 3,248 ? -15.5°
Reaches altitude 10° 01:36:28 10° 352° (N) 2,314 ? -15.0°
Maximum altitude 01:41:39 60° 72° (ENE) 874 ? -14.2°
Drops below altitude 10° 01:46:47 10° 152° (SSE) 2,288 ? -13.3°
Sets 01:49:10 0° 156° (SSE) 3,208 ? -12.8°
